Regional Weather Roundup
Issued by NWS New Orleans/Baton Rouge, LA

Home | Current Version | Previous Version | Text Only | Print | Product List | Glossary On
Versions: 1 2 3 4 5 6 7 8 9 10 11 12 13 14 15 16 17 18 19 20 21 22 23 24 25 26 27 28 29 30 31 32 33 34 35 36 37 38 39 40 41 42 43 44 45 46 47 48 49 50
000
ASUS44 KLIX 262311
RWRLIX
NEW ORLEANS REGIONAL WEATHER ROUNDUP
NATIONAL WEATHER SERVICE NEW ORLEANS LA
600 PM CDT THU MAR 26 2015

NOTE: "FAIR" INDICATES FEW OR NO CLOUDS BELOW 12,000 FEET WITH NO
      SIGNIFICANT WEATHER AND/OR OBSTRUCTIONS TO VISIBILITY.
      SKY/WX - SKY CONDITION AND SIGNIFICANT WEATHER.
      TMP - AIR TEMPERATURE.     DP    - DEWPOINT TEMPERATURE.
      RH  - RELATIVE HUMIDITY.   PRES  - PRESSURE.
      HI  - HEAT INDEX.          WCI   - WIND CHILL INDEX.

*  THESE STATIONS ARE NOT NWS OR FAA STATIONS AND ARE NOT UNDER
   NWS QUALITY CONTROL.

LAZ038-040-048-061>063-065>067-069-270000-
SOUTHEAST LOUISIANA

CITY           SKY/WX    TMP DP  RH WIND       PRES   REMARKS
N.O. AUDUBON     N/A     63  63 100 MISG        N/A
N.O. INTL ARPT CLOUDY    64  60  87 S6        29.83S
N.O. LAKEFRONT CLOUDY    66  59  78 S9        29.83R
SLIDELL        CLOUDY    65  63  93 S6        29.82S
BATON ROUGE    CLOUDY    66  63  90 SW8       29.85R
BOOTHVILLE     LGT RAIN  65  63  93 S21G28    29.85S FOG
BELLE CHASSE   CLOUDY    64  61  90 CALM      29.82R FOG
BOGALUSA*      DRIZZLE   69  60  74 S3        29.83S
GALLIANO*      CLOUDY    58  58  98 W5        29.80R
NEW ROADS*     DRIZZLE   67  66  96 CALM      29.86R
GONZALES*      CLOUDY    66  66 100 CALM      29.85R
HAMMOND*       CLOUDY    68  57  68 W6        29.86R
HOUMA*         PTSUNNY   64  63  94 NW7       29.84R
PORT FOURCHON* PTCLDY    66  64  94 SW6G18    29.81F

$$

MSZ070-080>082-270000-
SOUTHERN MISSISSIPPI

CITY           SKY/WX    TMP DP  RH WIND       PRES   REMARKS
MCCOMB         CLOUDY    67  65  93 W3        29.83S
GULFPORT       CLOUDY    66  62  87 W3        29.82F
BILOXI         CLOUDY    67  63  88 W3        29.82F
PASCAGOULA     CLOUDY    67  65  93 SW5       29.84R
STENNIS ARPT*  MOSUNNY   64  59  82 CALM      29.83F

$$

COASTAL OBSERVATIONS
LAKE AND NEARSHORE STATIONS

STATION/POSITION TIME  TEMP    WIND        PRES    WAVE
                       AIR SEA DIR/SP/G            HT/PER
                 (UTC) (F)     (DEG/KT/KT) (MB)    (FT/S)
PASCAGOULA       2200   69     210/ 10/ 14 1008.8
WAVELAND YACHT   2200   66 70  280/  6/ 10 1010.4
GRAND ISLE       2200   67 71  210/  7/  9 1010.3
SOUTHWEST PASS   2200   61 51  190/  9/ 10 1012.5
NEW CANAL        2200   64     200/  7/  9 1010.7
SHELL BEACH      2200   65 71  230/ 10/ 13 1010.5

OFFSHORE STATIONS

STATION/POSITION TIME  TEMP    WIND        PRES    WAVE
                       AIR SEA DIR/SP/G            HT/PER
                 (UTC) (F)     (DEG/KT/KT) (MB)    (FT/S)
64 S DAUPHIN ISL 2250   68 73  170/ 10/ 12 1011.3    2/ 6

$$



USA.gov is the U.S. government's official web portal to all federal, state and local government web resources and services.